Погода в Волосянке

Украина / Закарпатская область     48°58′50″N   22°48′25″E
темп.,
°C
ветер,
м/с
пор.,
м/с
влажн.,
%
обл.,
%
осадки,
мм/ч
давл.,
гПа
погр.,
м
19 мая, ср
ср1900:00+7з1399100 0.1 1009209
03:00+7зюз1299100 0.1 1010126
06:00+7зюз1199100 0.1 1010162
09:00+7зюз1299100 0.6 1012164
12:00+11зсз247893 0.5 10111007
15:00+13ссз245556 0.7 10101505
18:00+13св1263100 0.3 1010832
21:00+8св2291100 0.5 101132
20 мая, чт
чт2000:00+6св2297100 0.0 101230
03:00+6св2398100 0.0 101158
06:00+6ссв2698100 0.0 1011241
09:00+8ссв31093100 0.1 1011824
12:00+9св61183100 0.2 1012896
15:00+12св71063100 0.3 10121360
18:00+10ссв5976100 0.3 10131096
21:00+8ссв41085100 0.6 1015829
21 мая, пт
пт2100:00+8ссв31080100 0.0 1017740
03:00+6ссв2888100 0.0 1018276
06:00+4ссв239790 0.0 101953
09:00+9ссв25704 0.0 1019753
12:00+14св22496 0.0 10181571
15:00+18св0138100 0.0 10162207
18:00+16зюз434683 0.0 10151383
21:00+9ююз1187100 0.1 101711
22 мая, сб
сб2200:00+7ю229482 0.0 101727
03:00+6ю229738 0.0 101730
06:00+6ю229799 0.0 101643
09:00+12ююз4966100 0.0 1015948
12:00+14ююз51053100 0.0 10131159
15:00+15ююз61057100 0.0 10131363
18:00+14ююз51173100 0.1 10121344
21:00+10ююз41397100 1.4 10121170
23 мая, вс
вс2300:00+10ююз4129411 0.6 1011978
03:00+9зюз31097100 2.3 1011934
06:00+9з1299100 8.1 1012119
09:00+7с1196100 9.2 101468
12:00+8вюв0193100 0.2 1014129
15:00+15в0253100 0.2 10131221
18:00+13зсз0171100 0.3 1013240
21:00+8ссв219469 1.1 101624